Location: Bodest
(46.3000°N, 22.5667°E)
Time: 09:43:02
(UTC+00:00)

Okean-O - Pass Details

Date: 16 October 2021
Orbit: 639 x 640 km, 98.2° (Epoch: 02 December)

Event Time Altitude Azimuth Distance (km) Brightness Sun altitude
Exits shadow 16:30:04 - 114° (ESE) 2,145 4.8 -9.1°
Reaches altitude 10° 16:30:26 10° 111° (ESE) 2,033 4.6 -9.2°
Maximum altitude 16:33:42 21° 63° (ENE) 1,459 3.9 -9.8°
Drops below altitude 10° 16:36:58 10° 15° (NNE) 2,044 5.0 -10.3°
Sets 16:39:38 0° 360° (N) 2,958 6.0 -10.8°
